Regional Weather Roundup
Issued by NWS

Home | Current Version | Previous Version | Text Only | Print | Product List | Glossary On
Versions: 1 2 3 4 5 6 7 8 9 10 11 12 13 14 15 16 17 18 19 20 21 22 23 24 25 26 27 28 29 30 31 32 33 34 35 36 37 38 39 40 41 42 43 44 45 46 47 48 49 50
000
ASUS43 KDTX 031110
RWRMI
MICHIGAN HOURLY REGIONAL WEATHER ROUNDUP
NATIONAL WEATHER SERVICE DETROIT/PONTIAC MI
700 AM EDT MON AUG 03 2015

NOTE: "FAIR" INDICATES FEW OR NO CLOUDS BELOW 12,000 FEET WITH NO
SIGNIFICANT WEATHER AND/OR OBSTRUCTION TO VISIBILITY.

MIZ047>049-052>055-059>063-066>070-074>076-081>083-031200-
SOUTHEAST LOWER MICHIGAN

CITY           SKY/WX    TMP DP  RH WIND       PRES   REMARKS
ADRIAN         CLOUDY    63  62  97 W7        29.80R
ALMA           PTCLDY    60  60 100 CALM      29.75S FOG
ANN ARBOR      CLOUDY    63  61  93 SW9       29.77S
BAD AXE        MOCLDY    62  60  96 W6        29.73R
CARO           CLOUDY    62  61  97 W5        29.74R
DETROIT CITY   CLOUDY    65  61  87 SW12G18   29.76R
DETROIT        CLOUDY    65  62  90 SW12      29.78R
FLINT          CLOUDY    66  62  87 W6        29.76R
GROSSE ILE     CLOUDY    64  61  88 SW5       29.77R
HILLSDALE      CLOUDY    63  63 100 S7        29.79S
HOWELL         CLOUDY    64  63  96 SW5       29.78R

CITY           SKY/WX    TMP DP  RH WIND       PRES   REMARKS
JACKSON        MOCLDY    63  62  97 SW7       29.78R
LAMBERTVILLE   CLOUDY    64  61  90 SW6       29.79S
LANSING        CLOUDY    64  62  93 NW7       29.76S
LAPEER         CLOUDY    64  63  97 W3        29.75S
MASON          CLOUDY    61  60  97 CALM      29.77R
MONROE         CLOUDY    64  62  93 W8        29.78R
PONTIAC        CLOUDY    63  62  97 SW8       29.76R
PORT HURON     CLOUDY    63  61  94 W5        29.75R
TRI CITIES     CLEAR     61  58  90 SW5       29.75R
MIDLAND        FOG       57  56  97 CALM      29.74R VSB<1/4
TROY           CLOUDY    65  62  92 MISG      29.78R
SAGINAW HB     CLEAR     61  59  94 CALM      29.74R FOG
$$
MIZ043>046-050>051-056>058-064>065-071>073-077>080-031200-
SOUTHWEST LOWER MICHIGAN

CITY           SKY/WX    TMP DP  RH WIND       PRES   REMARKS
BATTLE CREEK   FOG       63  61  93 SW5       29.78R VSB 1/4
BENTON HARBOR  MOCLDY    62  61  96 MISG      29.78R FOG
BIG RAPIDS     FOG       56  55  97 CALM      29.75R VSB 1/4
COLDWATER      CLOUDY    63  62  97 CALM      29.78S
FREMONT        FOG       60  60 100 CALM      29.76R VSB<1/4
HOLLAND        PTCLDY    58  57  97 CALM      29.78R FOG
GRAND RAPIDS   PTCLDY    60  60 100 CALM      29.76S FOG
IONIA          FOG       62  62  99 W3        29.76R VSB<1/4
KALAMAZOO      CLOUDY    64  62  93 CALM      29.77R
LUDINGTON      MOCLDY    59  57  93 CALM      29.75R FOG
MARSHALL       CLOUDY    62  62  97 CALM      29.77S
MOUNT PLEASANT CLEAR     60  58  93 CALM      29.74S
MUSKEGON       PTCLDY    62  59  90 CALM      29.76R FOG
SOUTH HAVEN    CLEAR     62  60  96 CALM      29.78R
$$
MIZ016>042-031200-
NORTHERN LOWER MICHIGAN

CITY           SKY/WX    TMP DP  RH WIND       PRES   REMARKS
ALPENA         CLEAR     59  57  93 CALM      29.69R
BEAVER ISLAND  FOG       52  52  98 CALM      29.69R VSB<1/4
BELLAIRE       CLOUDY    63  62  96 S5        29.71R
CADILLAC       CLOUDY    61  61 100 SW8       29.74S FOG
CHARLEVOIX     CLEAR     61  59  93 SW3       29.72R
FRANKFORT      CLEAR     54  54 100 CALM      29.72R
GAYLORD        CLOUDY    62  62 100 W6        29.72R
GRAYLING       FOG       58  58  99 SW5       29.74R VSB 1/4
HARBOR SPRINGS CLEAR     61  60  96 CALM      29.69R
HOUGHTON LAKE  CLOUDY    59  59 100 SW6       29.74S FOG
MANISTEE       MOCLDY    54  50  87 CALM      29.75R
OSCODA         CLEAR     57  57 100 SW3       29.70R
PELLSTON       PTCLDY    52  51  97 CALM      29.69R
ROGERS CITY    CLEAR     59  58  97 W6        29.68S
TRAVERSE CITY  MOCLDY    62  61  96 VRB3      29.70R
$$
MIZ007>008-015-031200-
EASTERN UPPER MICHIGAN

CITY           SKY/WX    TMP DP  RH WIND       PRES   REMARKS
KINROSS        CLOUDY    54  52  94 NW6       29.67R VSB 1/4
MACKINAC ISLAN   N/A     61  60  96 W6        29.67R
NEWBERRY       MOCLDY    53  52  97 W6        29.68R
S. S. MARIE    CLOUDY    59  56  89 NW7       29.66R
MUNISING         N/A     62  52  69 W9        29.69R
$$
MIZ004>006-011>014-085-031200-
CENTRAL UPPER MICHIGAN

CITY           SKY/WX    TMP DP  RH WIND       PRES   REMARKS
MANISTIQUE     CLEAR     54  52  94 NW8       29.69R
ESCANABA       CLOUDY    57  52  82 W7        29.71R
MENOMINEE      CLOUDY    57  52  82 CALM      29.74R
SAWYER-GWINN   MOCLDY    55  50  82 W3        29.72R
$$
MIZ001>003-009>011-084-031200-
WESTERN UPPER MICHIGAN

CITY           SKY/WX    TMP DP  RH WIND       PRES   REMARKS
IRON MOUNTAIN  CLOUDY    58  51  78 W5        29.73R
HOUGHTON       CLOUDY    59  50  72 W8        29.70S
COPPER HARBOR    N/A     61  52  72 N9        29.67S
IRONWOOD       CLOUDY    57  50  77 W9        29.74S
$$

ABBREVIATIONS USED IN REMARKS
   TC - TEMPERATURE IN CELSIUS
  WCI - WIND CHILL INDEX
   HX - HEAT INDEX
  VSB - VISIBILITY



USA.gov is the U.S. government's official web portal to all federal, state and local government web resources and services.